Date String (YYYY-MM-DD hh:mm:ss) UTC,Instrument flags,Ambient pressure (hPa),Sample flow (lpm),Bypass flow (lpm),Sample temperature (°C),Ambient temperature (°C),ASC tube jacket temperature (°C),LED temperature (°C),Box temperature (°C),Sample RH (%),Span deviation,Mass concentration (μg/m³),Mass concentration (μg/m³),Mass concentration (μg/m³)
DateTimeUTC,F1_M11,P_M11,Q1_M11,Q2_M11,T1_M11,T2_M11,T3_M11,T4_M11,T5_M11,U1_M11,ZSPAN_M11,X2_M11,X0_M11,X1_M11
2021-10-29 16:00:00,,0830.0,4.99,0.00,26.8,26.0,00.0,35.7,28.7,13.5,0000.0,0001.59,0003.37,0001.01
2021-10-29 16:01:00,,0830.0,5.00,0.00,26.9,26.1,00.0,35.7,28.7,13.6,0000.0,0001.66,0003.51,0001.01
2021-10-29 16:02:00,,0830.0,5.00,0.00,26.9,26.1,00.0,35.7,28.8,13.3,0000.0,0001.65,0003.55,0000.99
2021-10-29 16:03:00,,0830.0,5.00,0.00,26.9,26.1,00.0,35.8,28.8,13.2,0000.0,0001.62,0003.53,0000.98
2021-10-29 16:04:00,,0830.0,5.00,0.00,26.9,26.1,00.0,35.8,28.8,13.2,0000.0,0001.60,0003.48,0000.97
2021-10-29 16:05:00,,0829.9,5.01,0.00,26.9,26.1,00.0,35.8,28.8,13.5,0000.0,0001.56,0003.25,0000.96
2021-10-29 16:06:00,,0829.9,5.00,0.00,26.9,26.2,00.0,35.8,28.8,13.3,0000.0,0001.57,0003.27,0000.95
2021-10-29 16:07:00,,0829.9,5.00,0.00,27.0,26.2,00.0,35.8,28.8,13.3,0000.0,0001.64,0004.10,0000.94
2021-10-29 16:08:00,,0829.8,5.00,0.00,27.0,26.2,00.0,35.8,28.9,13.5,0000.0,0001.58,0004.64,0000.92
2021-10-29 16:09:00,,0829.8,5.00,0.00,27.0,26.2,00.0,35.9,28.9,13.0,0000.0,0001.58,0004.79,0000.90
2021-10-29 16:10:00,,0829.8,4.99,0.00,27.0,26.3,00.0,35.9,28.9,13.3,0000.0,0001.61,0004.90,0000.91
2021-10-29 16:11:00,,0829.9,5.00,0.00,27.1,26.3,00.0,35.9,28.9,13.2,0000.0,0001.60,0005.21,0000.92
2021-10-29 16:12:00,,0829.9,5.00,0.00,27.1,26.3,00.0,35.9,29.0,13.2,0000.0,0001.57,0005.86,0000.93
2021-10-29 16:13:00,,0830.0,5.00,0.00,27.1,26.3,00.0,35.9,29.0,13.2,0000.0,0001.57,0005.85,0000.92
2021-10-29 16:14:00,,0830.0,5.00,0.00,27.1,26.3,00.0,36.0,29.0,13.3,0000.0,0001.58,0005.87,0000.93
2021-10-29 16:15:00,,0829.9,4.99,0.00,27.1,26.4,00.0,36.0,29.1,13.2,0000.0,0001.61,0006.13,0000.94
2021-10-29 16:16:00,,0829.9,5.00,0.00,27.2,26.4,00.0,36.0,29.1,13.2,0000.0,0001.63,0006.91,0000.92
2021-10-29 16:17:00,,0829.9,4.99,0.00,27.2,26.4,00.0,36.0,29.1,13.1,0000.0,0001.63,0006.86,0000.92
2021-10-29 16:18:00,,0829.9,5.00,0.00,27.2,26.4,00.0,36.0,29.1,13.1,0000.0,0001.58,0006.16,0000.92
2021-10-29 16:19:00,,0829.8,5.01,0.00,27.2,26.5,00.0,36.1,29.1,13.0,0000.0,0001.56,0005.32,0000.91
2021-10-29 16:20:00,,0829.9,5.00,0.00,27.2,26.5,00.0,36.1,29.2,13.0,0000.0,0001.52,0004.95,0000.91
2021-10-29 16:21:00,,0829.9,4.99,0.00,27.3,26.5,00.0,36.1,29.2,13.0,0000.0,0001.50,0004.91,0000.91
2021-10-29 16:22:00,,0829.9,4.99,0.00,27.3,26.5,00.0,36.1,29.2,12.8,0000.0,0001.41,0004.35,0000.89
2021-10-29 16:23:00,,0829.9,4.99,0.00,27.3,26.6,00.0,36.2,29.2,12.8,0000.0,0001.37,0003.34,0000.87
2021-10-29 16:24:00,,0829.8,5.01,0.00,27.3,26.6,00.0,36.2,29.3,13.0,0000.0,0001.40,0003.39,0000.87
2021-10-29 16:25:00,,0829.8,5.00,0.00,27.4,26.6,00.0,36.2,29.3,13.0,0000.0,0001.41,0003.43,0000.87
2021-10-29 16:26:00,,0829.8,5.00,0.00,27.4,26.6,00.0,36.2,29.3,13.0,0000.0,0001.44,0003.31,0000.86
2021-10-29 16:27:00,,0829.8,5.00,0.00,27.4,26.6,00.0,36.2,29.3,12.9,0000.0,0001.50,0002.73,0000.86
2021-10-29 16:28:00,,0829.8,5.00,0.00,27.4,26.7,00.0,36.3,29.3,12.8,0000.0,0001.46,0002.67,0000.86
2021-10-29 16:29:00,,0829.8,5.01,0.00,27.4,26.7,00.0,36.3,29.3,12.8,0000.0,0001.44,0002.63,0000.85
2021-10-29 16:30:00,,0829.8,5.00,0.00,27.4,26.7,00.0,36.3,29.4,12.8,0000.0,0001.47,0002.71,0000.85
2021-10-29 16:31:00,,0829.7,5.01,0.00,27.5,26.7,00.0,36.3,29.4,12.6,0000.0,0001.51,0002.84,0000.85
2021-10-29 16:32:00,,0829.7,5.00,0.00,27.5,26.7,00.0,36.3,29.4,12.6,0000.0,0001.49,0002.83,0000.84
2021-10-29 16:33:00,,0829.7,5.00,0.00,27.5,26.8,00.0,36.4,29.4,12.6,0000.0,0001.51,0002.84,0000.84
2021-10-29 16:34:00,,0829.7,5.00,0.00,27.5,26.8,00.0,36.4,29.4,12.5,0000.0,0001.47,0003.38,0000.83
2021-10-29 16:35:00,,0829.7,4.98,0.00,27.5,26.8,00.0,36.4,29.4,12.5,0000.0,0001.39,0003.34,0000.81
2021-10-29 16:36:00,,0829.7,5.00,0.00,27.5,26.8,00.0,36.4,29.4,12.4,0000.0,0001.37,0003.31,0000.79
2021-10-29 16:37:00,,0829.7,5.00,0.00,27.6,26.8,00.0,36.4,29.5,12.4,0000.0,0001.32,0003.26,0000.78
2021-10-29 16:38:00,,0829.7,5.01,0.00,27.6,26.8,00.0,36.5,29.5,12.4,0000.0,0001.26,0003.09,0000.78
2021-10-29 16:39:00,,0829.6,5.00,0.00,27.6,26.8,00.0,36.5,29.5,12.3,0000.0,0001.26,0004.03,0000.77
2021-10-29 16:40:00,,0829.6,5.00,0.00,27.6,26.9,00.0,36.5,29.5,12.2,0000.0,0001.32,0005.66,0000.78
2021-10-29 16:41:00,,0829.6,5.00,0.00,27.6,26.9,00.0,36.5,29.5,12.2,0000.0,0001.33,0006.02,0000.79
2021-10-29 16:42:00,,0829.6,5.00,0.00,27.7,26.9,00.0,36.5,29.6,12.2,0000.0,0001.28,0007.03,0000.78
2021-10-29 16:43:00,,0829.6,5.00,0.00,27.7,27.0,00.0,36.6,29.6,12.6,0000.0,0001.30,0007.15,0000.78
2021-10-29 16:44:00,,0829.6,5.01,0.00,27.7,27.0,00.0,36.6,29.6,12.6,0000.0,0001.34,0008.30,0000.79
2021-10-29 16:45:00,,0829.6,5.01,0.00,27.7,27.0,00.0,36.6,29.6,12.4,0000.0,0001.35,0008.19,0000.80
2021-10-29 16:46:00,,0829.5,4.99,0.00,27.7,27.0,00.0,36.6,29.7,12.4,0000.0,0001.46,0008.30,0000.81
2021-10-29 16:47:00,,0829.6,5.00,0.00,27.8,27.0,00.0,36.6,29.7,12.3,0000.0,0001.50,0008.35,0000.82
2021-10-29 16:48:00,,0829.6,5.01,0.00,27.8,27.0,00.0,36.7,29.7,12.2,0000.0,0001.47,0008.31,0000.83
2021-10-29 16:49:00,,0829.6,5.01,0.00,27.8,27.1,00.0,36.7,29.7,12.3,0000.0,0001.44,0008.89,0000.83
2021-10-29 16:50:00,,0829.5,4.99,0.00,27.8,27.1,00.0,36.7,29.7,12.3,0000.0,0001.46,0009.22,0000.82
2021-10-29 16:51:00,,0829.5,5.00,0.00,27.8,27.1,00.0,36.7,29.8,12.2,0000.0,0001.42,0008.62,0000.81
2021-10-29 16:52:00,,0829.5,5.00,0.00,27.9,27.2,00.0,36.7,29.8,12.2,0000.0,0001.41,0008.67,0000.80
2021-10-29 16:53:00,,0829.5,4.99,0.00,27.9,27.2,00.0,36.8,29.8,12.2,0000.0,0001.45,0008.25,0000.80
2021-10-29 16:54:00,,0829.4,5.01,0.00,27.9,27.2,00.0,36.8,29.8,12.1,0000.0,0001.43,0008.14,0000.79
2021-10-29 16:55:00,,0829.5,5.00,0.00,27.9,27.2,00.0,36.8,29.8,12.1,0000.0,0001.44,0007.05,0000.79
2021-10-29 16:56:00,,0829.5,4.99,0.00,27.9,27.2,00.0,36.8,29.8,12.0,0000.0,0001.43,0006.58,0000.78
2021-10-29 16:57:00,,0829.5,4.99,0.00,28.0,27.3,00.0,36.8,29.9,12.1,0000.0,0001.36,0006.38,0000.76
2021-10-29 16:58:00,,0829.5,5.00,0.00,28.0,27.3,00.0,36.9,29.9,12.0,0000.0,0001.29,0006.26,0000.75
2021-10-29 16:59:00,,0829.4,5.00,0.00,28.0,27.3,00.0,36.9,29.9,12.0,0000.0,0001.28,0007.04,0000.74
